Location: Berkeley
(37.8716°N, 122.2727°W)
Time: 00:15:06
(UTC-07:00)

OTV 5 (USA 277) - Visible Passes

Search period start: 23 October 2018 00:00
Search period end: 02 November 2018 00:00
Orbit: 387 x 394 km, 54.5° (Epoch: 08 September)

Date Brightness Start Highest point End Pass type
(mag) Time Alt. Az. Time Alt. Az. Time Alt. Az.
23 Oct ? 19:24:39 10° SSW 19:27:38 37° SE 19:28:34 29° E visible
24 Oct ? 20:04:04 10° WSW 20:07:04 37° NW 20:07:11 37° NNW visible
25 Oct ? 19:07:26 10° SW 19:10:36 86° SE 19:13:17 14° NE visible
25 Oct ? 20:45:30 10° NW 20:45:40 10° NW 20:45:40 10° NW visible
26 Oct ? 19:47:42 10° W 19:50:14 21° NW 19:51:39 16° N visible
27 Oct ? 18:50:35 10° WSW 18:53:39 44° NW 18:56:45 10° NE visible
28 Oct ? 19:31:47 10° WNW 19:33:29 14° NNW 19:35:11 10° N visible
